TimePDT,TemperatureF,Dew PointF,Humidity,Sea Level PressureIn,VisibilityMPH,Wind Direction,Wind SpeedMPH,Gust SpeedMPH,PrecipitationIn,Events,Conditions,WindDirDegrees,DateUTC
12:53 AM,45.0,41.0,86,29.91,10.0,East,8.1,-,N/A,,Clear,90,2013-05-26 07:53:00
1:53 AM,46.0,42.1,86,29.91,10.0,SSE,9.2,-,N/A,,Clear,150,2013-05-26 08:53:00
2:53 AM,48.0,42.1,80,29.91,10.0,SE,9.2,-,N/A,,Mostly Cloudy,140,2013-05-26 09:53:00
3:53 AM,48.0,42.1,80,29.90,10.0,SSE,10.4,-,N/A,,Mostly Cloudy,150,2013-05-26 10:53:00
4:53 AM,46.9,43.0,86,29.89,10.0,East,6.9,-,0.00,,Overcast,90,2013-05-26 11:53:00
5:53 AM,48.0,42.1,80,29.90,10.0,South,4.6,-,N/A,,Overcast,170,2013-05-26 12:53:00
6:53 AM,50.0,44.1,80,29.90,10.0,Calm,Calm,-,N/A,,Overcast,0,2013-05-26 13:53:00
7:53 AM,51.1,44.1,77,29.92,10.0,WSW,3.5,-,N/A,,Overcast,250,2013-05-26 14:53:00
8:53 AM,53.1,46.9,80,29.92,10.0,WNW,8.1,-,0.01,,Overcast,300,2013-05-26 15:53:00
9:53 AM,53.1,46.9,80,29.94,10.0,West,12.7,-,0.00,,Overcast,280,2013-05-26 16:53:00
10:53 AM,55.0,50.0,83,29.95,10.0,WNW,12.7,-,0.01,Rain,Light Rain,290,2013-05-26 17:53:00
11:26 AM,55.9,50.0,80,29.97,10.0,WNW,13.8,-,0.00,,Overcast,290,2013-05-26 18:26:00
11:53 AM,57.0,50.0,77,29.96,10.0,West,17.3,-,0.00,,Overcast,280,2013-05-26 18:53:00
12:08 PM,57.0,50.0,77,29.97,10.0,West,19.6,-,N/A,,Overcast,280,2013-05-26 19:08:00
12:53 PM,55.9,48.9,77,29.96,10.0,West,13.8,-,N/A,,Overcast,280,2013-05-26 19:53:00
1:53 PM,57.0,48.9,74,29.96,10.0,WNW,9.2,-,N/A,,Overcast,300,2013-05-26 20:53:00
2:53 PM,59.0,48.0,67,29.96,10.0,West,6.9,-,N/A,,Overcast,270,2013-05-26 21:53:00
3:53 PM,60.1,46.0,60,29.94,10.0,South,5.8,-,N/A,,Overcast,190,2013-05-26 22:53:00
4:53 PM,62.1,46.9,58,29.94,10.0,SE,6.9,-,N/A,,Overcast,130,2013-05-26 23:53:00
5:53 PM,63.0,46.0,54,29.92,10.0,Calm,Calm,-,N/A,,Partly Cloudy,0,2013-05-27 00:53:00
6:53 PM,61.0,46.0,58,29.93,10.0,Calm,Calm,-,N/A,,Clear,0,2013-05-27 01:53:00
7:53 PM,60.1,46.9,62,29.93,10.0,South,4.6,-,N/A,,Partly Cloudy,170,2013-05-27 02:53:00
8:53 PM,57.0,46.0,67,29.95,10.0,WSW,13.8,-,N/A,,Mostly Cloudy,250,2013-05-27 03:53:00
9:53 PM,55.0,43.0,64,29.95,10.0,WSW,12.7,-,N/A,,Clear,250,2013-05-27 04:53:00
10:53 PM,52.0,43.0,71,29.96,10.0,SSW,5.8,-,N/A,,Clear,210,2013-05-27 05:53:00
11:53 PM,52.0,42.1,69,29.96,10.0,SSW,6.9,-,N/A,,Clear,210,2013-05-27 06:53:00